DW8780 Weather Reports


Display with metric or nautical units.
time (UTC)temp
F
wind
direction
speed
MPH
gust
MPH
rain 1hr
in
rain 24hr
in
rain mn
in
humidity
%
barometer
mb
20210919050004 69 252 0.0 2.0 0.00 0.01 0.00 95 1019.1
20210919045503 69 251 0.0 2.0 0.00 0.01 0.00 95 1019.1
20210919045003 69 241 0.0 1.0 0.00 0.01 0.00 95 1019.1
20210919044504 69 222 0.0 1.0 0.00 0.01 0.00 95 1019.1
20210919044003 69 213 0.0 2.0 0.00 0.01 0.00 95 1019.1
20210919043503 69 220 0.0 2.0 0.00 0.01 0.00 95 1019.0
20210919043004 69 270 0.0 1.0 0.00 0.01 0.00 95 1019.1
20210919042504 69 24 0.0 1.0 0.00 0.01 0.00 94 1019.1
20210919042003 69 272 0.0 1.0 0.00 0.01 0.00 94 1019.0
20210919041504 69 187 0.0 2.0 0.00 0.01 0.00 94 1018.9
20210919041004 69 192 1.0 2.0 0.00 0.01 0.00 94 1018.8
20210919040504 69 203 1.0 2.0 0.00 0.01 0.00 94 1018.8
20210919040003 70 214 1.0 2.0 0.00 0.01 0.00 94 1018.8
20210919035503 70 209 1.0 2.0 0.00 0.01 0.01 94 1018.8
20210919035004 70 209 1.0 2.0 0.00 0.01 0.01 94 1018.8
20210919034503 70 212 1.0 2.0 0.00 0.01 0.01 94 1018.8
20210919034003 70 224 0.0 2.0 0.00 0.01 0.01 94 1018.7
20210919033503 70 221 1.0 2.0 0.00 0.01 0.01 94 1018.8
20210919033004 70 217 1.0 2.0 0.00 0.01 0.01 94 1018.8
20210919032503 70 220 1.0 2.0 0.00 0.01 0.01 94 1018.8
20210919032003 70 223 1.0 2.0 0.00 0.01 0.01 94 1018.8
20210919031503 70 229 1.0 2.0 0.00 0.01 0.01 94 1018.9
20210919031004 70 251 1.0 2.0 0.00 0.01 0.01 94 1018.9
20210919030503 70 277 0.0 2.0 0.00 0.01 0.01 94 1018.8
20210919030004 70 12 0.0 2.0 0.00 0.01 0.01 94 1018.9
20210919025504 70 301 0.0 2.0 0.00 0.01 0.01 94 1018.8
20210919025003 70 277 0.0 2.0 0.00 0.01 0.01 94 1018.6
20210919024504 71 283 0.0 2.0 0.00 0.01 0.01 94 1018.6
20210919024004 71 288 1.0 2.0 0.00 0.01 0.01 93 1018.6
20210919023503 71 273 1.0 2.0 0.00 0.01 0.01 93 1018.6
20210919023003 71 269 1.0 2.0 0.00 0.01 0.01 93 1018.5
20210919022504 71 259 1.0 2.0 0.00 0.01 0.01 93 1018.6
20210919022004 71 246 1.0 2.0 0.00 0.01 0.01 93 1018.6
20210919021503 71 239 1.0 3.0 0.00 0.01 0.01 93 1018.5
20210919021004 71 224 1.0 3.0 0.00 0.01 0.01 93 1018.5
20210919020504 71 241 1.0 2.0 0.00 0.01 0.01 93 1018.5
20210919020003 71 262 1.0 2.0 0.00 0.01 0.01 93 1018.5
20210919015503 71 251 1.0 2.0 0.00 0.01 0.01 93 1018.4
20210919015004 72 239 1.0 2.0 0.00 0.01 0.01 93 1018.4
20210919014503 72 227 0.0 2.0 0.00 0.01 0.01 93 1018.3
20210919014003 72 224 0.0 2.0 0.00 0.01 0.01 92 1018.3
20210919013504 72 233 0.0 2.0 0.00 0.01 0.01 92 1018.4
20210919013004 72 212 0.0 2.0 0.00 0.01 0.01 92 1018.3
20210919012503 72 186 0.0 1.0 0.00 0.01 0.01 92 1018.4
20210919012004 72 240 0.0 3.0 0.00 0.01 0.01 92 1018.3
20210919011504 72 233 0.0 3.0 0.00 0.01 0.01 92 1018.3
20210919011003 72 224 0.0 2.0 0.00 0.01 0.01 91 1018.3
20210919010503 72 210 1.0 3.0 0.00 0.01 0.01 91 1018.3
20210919010004 73 228 1.0 3.0 0.00 0.01 0.01 90 1018.3
20210919005504 73 246 1.0 3.0 0.00 0.01 0.01 91 1018.4
20210919005003 73 232 1.0 2.0 0.00 0.01 0.01 91 1018.5
20210919004503 73 218 1.0 2.0 0.00 0.01 0.01 90 1018.4
20210919004004 73 206 0.0 2.0 0.00 0.01 0.01 90 1018.3
20210919003503 74 229 1.0 2.0 0.00 0.01 0.01 89 1018.1
20210919003003 74 230 1.0 2.0 0.00 0.01 0.01 89 1018.1
20210919002503 74 220 1.0 2.0 0.00 0.01 0.01 89 1018.0
20210919002004 74 198 1.0 2.0 0.00 0.01 0.01 88 1017.9
20210919001504 74 225 1.0 2.0 0.00 0.01 0.01 88 1017.9
20210919001003 74 233 1.0 2.0 0.00 0.01 0.01 88 1017.9
20210919000504 75 213 1.0 2.0 0.00 0.01 0.01 88 1017.8
20210919000004 75 199 1.0 2.0 0.00 0.01 0.01 87 1017.8
20210918235503 75 194 0.0 2.0 0.00 0.01 0.01 86 1017.8
20210918235004 76 185 1.0 2.0 0.00 0.01 0.01 86 1017.8
20210918234504 76 206 1.0 2.0 0.00 0.01 0.01 85 1017.7
20210918234003 76 216 1.0 2.0 0.00 0.01 0.01 85 1017.7
20210918233503 76 212 1.0 2.0 0.00 0.01 0.01 84 1017.7
20210918233004 76 220 1.0 3.0 0.00 0.01 0.01 84 1017.7
20210918232503 77 225 1.0 3.0 0.00 0.01 0.01 83 1017.7
20210918232003 77 239 1.0 2.0 0.00 0.01 0.01 82 1017.7
20210918231504 77 214 1.0 2.0 0.00 0.01 0.01 82 1017.7
20210918231004 77 205 1.0 3.0 0.00 0.01 0.01 82 1017.6
20210918230503 78 216 1.0 3.0 0.00 0.01 0.01 81 1017.6
20210918230003 78 227 1.0 5.0 0.00 0.01 0.01 80 1017.7
20210918225504 78 223 1.0 5.0 0.00 0.01 0.01 80 1017.6
20210918225003 78 223 1.0 3.0 0.00 0.01 0.01 79 1017.6
20210918224503 78 241 2.0 4.0 0.00 0.01 0.01 79 1017.4
20210918224003 79 264 2.0 5.0 0.00 0.01 0.01 78 1017.4
20210918223503 79 267 2.0 6.0 0.00 0.01 0.01 77 1017.3
20210918223004 79 253 2.0 6.0 0.00 0.01 0.01 78 1017.2
20210918222503 80 243 1.0 6.0 0.00 0.01 0.01 77 1017.2
20210918222004 80 229 1.0 4.0 0.00 0.01 0.01 76 1017.2
20210918221503 80 247 2.0 6.0 0.00 0.01 0.01 75 1017.2
20210918221004 80 266 2.0 6.0 0.00 0.01 0.01 75 1017.2
20210918220504 80 253 2.0 7.0 0.00 0.01 0.01 75 1017.2
20210918220004 81 265 2.0 7.0 0.00 0.01 0.01 74 1017.1
20210918215504 81 290 2.0 7.0 0.00 0.01 0.01 73 1017.2
20210918215003 81 296 3.0 8.0 0.00 0.01 0.01 72 1017.2
20210918214503 81 298 4.0 9.0 0.00 0.01 0.01 72 1017.2
20210918214004 81 293 4.0 9.0 0.00 0.01 0.01 71 1017.2
20210918213504 81 276 3.0 8.0 0.00 0.01 0.01 72 1017.1
20210918213004 81 288 3.0 9.0 0.00 0.01 0.01 72 1017.2
20210918212505 81 292 3.0 9.0 0.00 0.01 0.01 71 1017.1
20210918212004 81 290 3.0 9.0 0.00 0.01 0.01 72 1017.1
20210918211504 82 332 4.0 12.0 0.00 0.01 0.01 72 1017.2
20210918211005 82 351 4.0 12.0 0.00 0.01 0.01 71 1017.2
20210918210504 81 339 4.0 10.0 0.00 0.01 0.01 71 1017.2
20210918210004 82 337 3.0 8.0 0.00 0.01 0.01 71 1017.2
20210918205505 82 345 3.0 8.0 0.00 0.01 0.01 71 1017.1
20210918205005 82 340 4.0 8.0 0.00 0.01 0.01 70 1017.2
20210918204505 82 338 3.0 8.0 0.00 0.01 0.01 70 1017.2
20210918204004 82 306 3.0 9.0 0.00 0.01 0.01 71 1017.2
20210918203505 82 294 4.0 12.0 0.00 0.01 0.01 71 1017.2
20210918203004 82 300 3.0 12.0 0.00 0.01 0.01 72 1017.1
20210918202504 82 290 2.0 9.0 0.00 0.01 0.01 72 1017.1
20210918202005 82 282 3.0 9.0 0.00 0.01 0.01 71 1017.0
20210918201504 82 270 3.0 9.0 0.00 0.01 0.01 71 1017.1
20210918201004 82 262 3.0 10.0 0.00 0.01 0.01 69 1017.1
20210918200505 82 264 3.0 11.0 0.00 0.01 0.01 70 1017.2
20210918200005 83 270 3.0 11.0 0.00 0.01 0.01 70 1017.3
20210918195504 83 288 3.0 8.0 0.00 0.01 0.01 69 1017.4
20210918195005 83 324 3.0 7.0 0.00 0.01 0.01 70 1017.3
20210918194505 83 338 4.0 8.0 0.00 0.01 0.01 71 1017.4
20210918194004 83 316 4.0 9.0 0.00 0.01 0.01 73 1017.4
20210918193504 83 294 3.0 9.0 0.00 0.01 0.01 72 1017.5
20210918193004 83 300 3.0 9.0 0.00 0.01 0.01 73 1017.6
20210918192505 83 306 3.0 9.0 0.00 0.01 0.01 73 1017.7
20210918192004 82 277 3.0 7.0 0.00 0.01 0.01 74 1017.8
20210918191505 82 313 3.0 10.0 0.00 0.02 0.01 74 1017.9
20210918191004 82 308 3.0 10.0 0.00 0.02 0.01 72 1018.0
20210918190504 81 276 4.0 12.0 0.00 0.02 0.01 74 1018.1
20210918190004 81 300 4.0 12.0 0.00 0.02 0.01 75 1018.3
20210918185505 81 338 4.0 12.0 0.00 0.02 0.01 77 1018.3
20210918185004 80 316 4.0 9.0 0.00 0.02 0.01 77 1018.3
20210918184504 80 290 4.0 9.0 0.00 0.02 0.01 77 1018.3
20210918184005 80 292 3.0 7.0 0.00 0.02 0.01 77 1018.5
20210918183505 79 293 3.0 7.0 0.00 0.02 0.01 78 1018.5
20210918183004 79 287 3.0 8.0 0.00 0.02 0.01 77 1018.6
20210918182504 80 285 3.0 8.0 0.00 0.02 0.01 77 1018.6
20210918182004 80 292 3.0 9.0 0.00 0.02 0.01 77 1018.7
20210918181505 80 275 3.0 9.0 0.00 0.02 0.01 77 1018.7
20210918181004 80 237 2.0 7.0 0.00 0.02 0.01 76 1018.8
20210918180504 80 230 3.0 7.0 0.00 0.02 0.01 74 1018.8
20210918180005 81 219 3.0 7.0 0.00 0.02 0.01 75 1018.9
20210918175504 81 226 3.0 7.0 0.00 0.02 0.01 76 1018.9
20210918175004 80 243 3.0 8.0 0.00 0.02 0.01 76 1019.0
20210918174504 80 255 3.0 8.0 0.00 0.02 0.01 75 1019.0
20210918174005 81 319 2.0 6.0 0.00 0.02 0.01 74 1019.1
20210918173504 81 331 3.0 5.0 0.00 0.02 0.01 73 1019.0
20210918173004 81 349 4.0 11.0 0.00 0.02 0.01 72 1019.1
20210918172505 81 19 3.0 11.0 0.00 0.02 0.01 74 1019.1
20210918172004 80 26 3.0 7.0 0.00 0.02 0.01 74 1019.2
20210918171504 80 327 4.0 8.0 0.00 0.02 0.01 75 1019.3
20210918171005 80 281 4.0 8.0 0.00 0.02 0.01 75 1019.4
20210918170504 80 296 4.0 9.0 0.00 0.02 0.01 75 1019.5
20210918170004 79 311 3.0 9.0 0.00 0.02 0.01 77 1019.6
20210918165505 79 305 3.0 11.0 0.00 0.02 0.01 77 1019.7
20210918165004 79 296 3.0 11.0 0.00 0.02 0.01 76 1019.7
20210918164505 79 296 4.0 12.0 0.00 0.02 0.01 74 1019.8
20210918164004 79 331 6.0 12.0 0.00 0.02 0.01 75 1020.0
20210918163505 79 345 5.0 12.0 0.00 0.02 0.01 75 1020.0
20210918163005 79 319 4.0 12.0 0.00 0.02 0.01 74 1020.0
20210918162504 79 336 3.0 7.0 0.00 0.02 0.01 77 1020.0
20210918162005 79 358 3.0 10.0 0.00 0.02 0.01 76 1020.0
20210918161504 79 339 3.0 11.0 0.00 0.02 0.01 79 1020.1
20210918161004 78 349 4.0 11.0 0.00 0.02 0.01 78 1020.1
20210918160505 78 333 4.0 10.0 0.00 0.02 0.01 77 1020.1
20210918160005 78 293 3.0 8.0 0.00 0.02 0.01 79 1020.1
20210918155504 78 303 4.0 8.0 0.00 0.02 0.01 78 1020.1
20210918155005 78 329 4.0 10.0 0.00 0.02 0.01 77 1020.2
20210918154504 78 349 5.0 10.0 0.00 0.02 0.01 78 1020.3
20210918154004 78 340 5.0 10.0 0.00 0.02 0.01 77 1020.2
20210918153505 78 347 5.0 12.0 0.00 0.02 0.01 80 1020.2
20210918153004 77 354 4.0 12.0 0.00 0.02 0.01 80 1020.2
20210918152504 76 336 4.0 9.0 0.00 0.02 0.01 80 1020.3
20210918152005 76 342 4.0 9.0 0.00 0.02 0.01 81 1020.3
20210918151504 76 17 3.0 6.0 0.00 0.02 0.01 84 1020.2
20210918151004 76 21 3.0 9.0 0.00 0.02 0.01 81 1020.3
20210918150504 75 8 4.0 9.0 0.00 0.02 0.01 81 1020.4
20210918150005 75 6 5.0 9.0 0.00 0.02 0.01 82 1020.4
20210918145504 75 15 5.0 9.0 0.00 0.02 0.01 82 1020.3
20210918145004 75 19 5.0 9.0 0.00 0.02 0.01 82 1020.4
20210918144505 75 23 4.0 9.0 0.00 0.02 0.01 83 1020.4
20210918144005 75 17 4.0 10.0 0.00 0.02 0.01 82 1020.4
20210918143504 75 7 5.0 12.0 0.00 0.02 0.01 84 1020.5
20210918143004 75 26 5.0 12.0 0.00 0.02 0.01 83 1020.5
20210918142504 75 39 5.0 10.0 0.00 0.02 0.01 82 1020.4
20210918142004 75 27 5.0 10.0 0.00 0.02 0.01 83 1020.4
20210918141505 75 32 5.0 10.0 0.00 0.02 0.01 83 1020.4
20210918141004 74 38 4.0 8.0 0.00 0.02 0.01 85 1020.3
20210918140504 74 41 5.0 10.0 0.00 0.02 0.01 87 1020.3
20210918140004 74 38 4.0 10.0 0.00 0.02 0.01 87 1020.2
20210918135504 73 27 3.0 8.0 0.00 0.02 0.01 90 1020.3
20210918135004 73 41 3.0 6.0 0.00 0.02 0.01 88 1020.3
20210918134505 73 38 4.0 10.0 0.00 0.02 0.01 90 1020.2
20210918134004 73 40 5.0 10.0 0.00 0.02 0.01 89 1020.3
20210918133504 72 47 4.0 9.0 0.00 0.02 0.01 90 1020.3
20210918133005 72 42 4.0 8.0 0.00 0.02 0.01 91 1020.3
20210918132504 72 34 3.0 8.0 0.00 0.02 0.01 91 1020.4
20210918132004 72 33 3.0 8.0 0.00 0.02 0.01 92 1020.3
20210918131504 71 36 4.0 7.0 0.00 0.02 0.01 92 1020.3
20210918131004 71 35 4.0 9.0 0.00 0.02 0.01 92 1020.3
20210918130504 71 42 4.0 9.0 0.00 0.02 0.01 93 1020.3
20210918130005 71 43 4.0 9.0 0.00 0.02 0.01 94 1020.3
20210918125505 70 24 3.0 6.0 0.00 0.02 0.01 95 1020.3
20210918125004 70 46 3.0 6.0 0.00 0.02 0.01 95 1020.3
20210918124505 70 63 3.0 5.0 0.00 0.02 0.01 95 1020.3
20210918124004 69 43 3.0 5.0 0.00 0.02 0.01 95 1020.3
20210918123504 69 54 3.0 9.0 0.00 0.02 0.01 96 1020.3
20210918123005 69 60 4.0 9.0 0.00 0.02 0.01 96 1020.3
20210918122504 69 50 4.0 8.0 0.00 0.02 0.01 96 1020.3
20210918122004 69 49 4.0 8.0 0.00 0.02 0.01 96 1020.3
20210918121505 69 52 4.0 7.0 0.01 0.02 0.01 96 1020.2
20210918121004 68 47 3.0 7.0 0.01 0.02 0.01 96 1020.2
20210918120504 68 38 3.0 6.0 0.01 0.02 0.01 96 1020.2
20210918120004 68 34 3.0 6.0 0.01 0.02 0.01 96 1020.3
20210918115505 68 14 2.0 4.0 0.01 0.02 0.01 96 1020.2
20210918115004 68 12 3.0 5.0 0.01 0.02 0.01 96 1020.2
20210918114504 68 23 3.0 6.0 0.01 0.02 0.01 96 1020.3
20210918114004 68 23 3.0 6.0 0.01 0.02 0.01 96 1020.2
20210918113505 68 17 4.0 7.0 0.01 0.02 0.01 96 1020.3
20210918113005 68 10 4.0 7.0 0.01 0.02 0.01 96 1020.4
20210918112504 68 15 4.0 8.0 0.01 0.02 0.01 96 1020.4
20210918112004 68 17 4.0 8.0 0.01 0.02 0.01 96 1020.5
20210918111504 67 8 3.0 7.0 0.00 0.01 0.00 97 1020.4
20210918111005 67 5 3.0 7.0 0.00 0.01 0.00 96 1020.4
20210918110504 67 359 2.0 5.0 0.00 0.01 0.00 96 1020.3
20210918110005 66 340 2.0 4.0 0.00 0.01 0.00 96 1020.3
20210918105504 66 314 2.0 4.0 0.00 0.01 0.00 96 1020.2
20210918105005 66 303 1.0 3.0 0.00 0.01 0.00 96 1020.3
20210918104504 66 302 1.0 3.0 0.00 0.01 0.00 96 1020.3
20210918104004 66 294 1.0 3.0 0.00 0.01 0.00 96 1020.3
20210918103504 66 298 1.0 3.0 0.00 0.01 0.00 96 1020.2
20210918103005 66 325 1.0 3.0 0.00 0.01 0.00 96 1020.2
20210918102504 66 326 1.0 3.0 0.00 0.01 0.00 96 1020.1
20210918102004 66 315 1.0 3.0 0.00 0.01 0.00 96 1020.1
20210918101504 66 310 1.0 2.0 0.00 0.01 0.00 96 1020.1
20210918101004 67 303 1.0 2.0 0.00 0.01 0.00 96 1020.0
20210918100504 67 305 1.0 2.0 0.00 0.01 0.00 95 1019.9
20210918100005 67 342 1.0 3.0 0.00 0.01 0.00 95 1019.8
20210918095504 67 344 1.0 3.0 0.00 0.01 0.00 95 1019.7
20210918095004 67 333 1.0 3.0 0.00 0.01 0.00 95 1019.5
20210918094505 67 344 1.0 4.0 0.00 0.01 0.00 95 1019.5
20210918094004 67 354 1.0 5.0 0.00 0.01 0.00 95 1019.6
20210918093504 67 354 1.0 5.0 0.00 0.01 0.00 95 1019.6
20210918093004 67 330 1.0 2.0 0.00 0.01 0.00 95 1019.6
20210918092504 67 319 1.0 3.0 0.00 0.01 0.00 95 1019.5
20210918092005 67 320 1.0 3.0 0.00 0.01 0.00 95 1019.6
20210918091504 67 342 1.0 4.0 0.00 0.01 0.00 95 1019.5
20210918091004 67 353 2.0 4.0 0.00 0.01 0.00 95 1019.5
20210918090504 67 348 1.0 4.0 0.00 0.01 0.00 95 1019.5
20210918090005 67 338 1.0 3.0 0.00 0.01 0.00 95 1019.3
20210918085504 67 339 1.0 3.0 0.00 0.01 0.00 95 1019.4
20210918085004 68 327 1.0 3.0 0.00 0.01 0.00 95 1019.2
20210918084504 68 329 1.0 3.0 0.00 0.01 0.00 95 1019.3
20210918084005 68 350 1.0 3.0 0.00 0.01 0.00 95 1019.2
20210918083504 68 348 1.0 4.0 0.00 0.01 0.00 95 1019.1
20210918083005 68 353 2.0 4.0 0.00 0.01 0.00 95 1019.1
20210918082504 68 10 1.0 3.0 0.00 0.01 0.00 95 1019.2
20210918082004 68 30 2.0 4.0 0.00 0.01 0.00 95 1019.2
20210918081504 68 22 2.0 6.0 0.00 0.02 0.00 95 1019.1
20210918081004 68 8 2.0 6.0 0.00 0.02 0.00 95 1019.2
20210918080505 68 11 2.0 5.0 0.00 0.02 0.00 95 1019.3
20210918080004 68 10 3.0 6.0 0.00 0.02 0.00 95 1019.2
20210918075504 68 5 3.0 6.0 0.00 0.02 0.00 95 1019.1
20210918075004 68 8 2.0 6.0 0.00 0.02 0.00 95 1019.3
20210918074504 68 18 2.0 5.0 0.00 0.02 0.00 95 1019.2
20210918074004 68 19 3.0 6.0 0.00 0.02 0.00 95 1019.2
20210918073504 68 19 3.0 6.0 0.00 0.02 0.00 95 1019.2
20210918073005 68 9 3.0 6.0 0.00 0.02 0.00 95 1019.2
20210918072504 68 2 3.0 6.0 0.00 0.02 0.00 95 1019.1
20210918072004 68 5 3.0 7.0 0.00 0.02 0.00 95 1019.2
20210918071504 68 7 4.0 7.0 0.00 0.02 0.00 95 1019.3
20210918071004 68 10 4.0 7.0 0.00 0.02 0.00 95 1019.2
20210918070504 68 6 4.0 7.0 0.00 0.02 0.00 95 1019.3
20210918070004 68 2 3.0 7.0 0.00 0.02 0.00 95 1019.2
20210918065504 68 3 3.0 6.0 0.00 0.02 0.00 95 1019.2
20210918065004 68 6 2.0 6.0 0.00 0.02 0.00 95 1019.1
20210918064504 68 2 3.0 6.0 0.00 0.02 0.00 95 1019.2
20210918064005 68 356 2.0 5.0 0.00 0.02 0.00 95 1019.2
20210918063504 68 350 2.0 5.0 0.00 0.02 0.00 95 1019.1
20210918063004 69 350 2.0 5.0 0.00 0.02 0.00 95 1019.2
20210918062504 69 357 2.0 5.0 0.00 0.02 0.00 95 1019.2
20210918062005 69 6 1.0 4.0 0.00 0.02 0.00 95 1019.2
20210918061504 69 19 1.0 3.0 0.00 0.02 0.00 95 1019.1
20210918061004 69 12 2.0 5.0 0.00 0.02 0.00 94 1019.1
20210918060504 69 357 1.0 5.0 0.00 0.02 0.00 94 1019.2
20210918060004 69 349 1.0 3.0 0.00 0.02 0.00 94 1019.3
20210918055504 69 329 1.0 4.0 0.00 0.02 0.00 94 1019.3
20210918055004 69 320 1.0 4.0 0.00 0.02 0.00 94 1019.2
20210918054504 69 335 1.0 3.0 0.00 0.02 0.00 94 1019.2
20210918054004 69 337 1.0 3.0 0.00 0.02 0.00 95 1019.1
20210918053504 70 344 1.0 4.0 0.00 0.02 0.00 95 1019.2
20210918053004 70 11 2.0 5.0 0.00 0.02 0.00 94 1019.1
20210918052504 70 16 2.0 5.0 0.00 0.02 0.00 95 1019.1
20210918052005 70 14 3.0 5.0 0.00 0.02 0.00 95 1019.2
20210918051504 70 14 3.0 5.0 0.00 0.02 0.00 95 1019.2
20210918051004 70 18 3.0 5.0 0.00 0.02 0.00 94 1019.2
20210918050504 70 28 3.0 6.0 0.00 0.02 0.00 94 1019.3